Time,TemperatureF,DewpointF,PressureIn,WindDirection,WindDirectionDegrees,WindSpeedMPH,WindSpeedGustMPH,Humidity,HourlyPrecipIn,Conditions,Clouds,dailyrainin,SoftwareType,DateUTC
2013-05-24 00:03:00,40.1,31.8,29.97,SSW,213,3.0,9.0,72,0.00,,SKC,0.00,VWS V12.07,2013-05-24 07:03:00,
2013-05-24 00:12:00,40.4,31.8,29.97,SSW,209,4.0,9.0,71,0.00,,SKC,0.00,VWS V12.07,2013-05-24 07:12:00,
2013-05-24 00:22:00,40.6,32.0,29.96,SW,214,3.0,10.0,71,0.00,,SKC,0.00,VWS V12.07,2013-05-24 07:22:00,
2013-05-24 00:32:00,40.5,30.8,29.96,SSW,211,5.0,12.0,68,0.00,,SKC,0.00,VWS V12.07,2013-05-24 07:32:00,
2013-05-24 00:42:00,40.5,31.1,29.95,South,191,4.0,15.0,69,0.00,,SKC,0.00,VWS V12.07,2013-05-24 07:42:00,
2013-05-24 00:52:00,40.4,31.0,29.95,SW,220,4.0,15.0,69,0.00,,SKC,0.00,VWS V12.07,2013-05-24 07:52:00,
2013-05-24 01:02:00,40.1,30.8,29.96,SSW,201,0.0,13.0,69,0.00,,SKC,0.00,VWS V12.07,2013-05-24 08:02:00,
2013-05-24 01:12:00,39.8,30.5,29.97,SSW,212,6.0,13.0,69,0.00,,SKC,0.00,VWS V12.07,2013-05-24 08:12:00,
2013-05-24 01:22:00,39.7,30.4,29.95,SSW,212,7.0,13.0,69,0.00,,SKC,0.00,VWS V12.07,2013-05-24 08:22:00,
2013-05-24 01:32:00,39.8,30.8,29.94,SSW,209,4.0,9.0,70,0.00,,SKC,0.00,VWS V12.07,2013-05-24 08:32:00,
2013-05-24 01:42:00,39.7,30.4,29.96,SSW,210,7.0,10.0,69,0.00,,SKC,0.00,VWS V12.07,2013-05-24 08:42:00,
2013-05-24 01:52:00,39.7,30.4,29.95,SW,216,7.0,11.0,69,0.00,,SKC,0.00,VWS V12.07,2013-05-24 08:52:00,
2013-05-24 02:02:00,39.7,30.0,29.95,SW,219,5.0,9.0,68,0.00,,SKC,0.00,VWS V12.07,2013-05-24 09:02:00,
2013-05-24 02:12:00,39.8,29.8,29.96,SW,220,7.0,10.0,67,0.00,,SKC,0.00,VWS V12.07,2013-05-24 09:12:00,
2013-05-24 02:22:00,39.8,30.1,29.94,SSW,212,10.0,12.0,68,0.00,,SKC,0.00,VWS V12.07,2013-05-24 09:22:00,
2013-05-24 02:32:00,39.7,30.0,29.96,SSW,210,9.0,12.0,68,0.00,,SKC,0.00,VWS V12.07,2013-05-24 09:32:00,
2013-05-24 02:42:00,39.7,30.4,29.95,SSW,192,10.0,14.0,69,0.00,,SKC,0.00,VWS V12.07,2013-05-24 09:42:00,
2013-05-24 02:52:00,39.5,30.2,29.94,SSW,205,8.0,14.0,69,0.00,,SKC,0.00,VWS V12.07,2013-05-24 09:52:00,
2013-05-24 03:02:00,39.4,30.4,29.95,SSW,206,7.0,10.0,70,0.00,,SKC,0.00,VWS V12.07,2013-05-24 10:02:00,
2013-05-24 03:12:00,39.4,30.4,29.95,SW,217,10.0,17.0,70,0.00,,SKC,0.00,VWS V12.07,2013-05-24 10:12:00,
2013-05-24 03:22:00,39.3,30.7,29.94,SW,232,11.0,17.0,71,0.00,,SKC,0.00,VWS V12.07,2013-05-24 10:22:00,
2013-05-24 03:32:00,38.9,30.7,29.95,SW,217,10.0,14.0,72,0.00,,SKC,0.00,VWS V12.07,2013-05-24 10:32:00,
2013-05-24 03:42:00,38.9,30.7,29.94,SW,222,11.0,15.0,72,0.00,,SKC,0.00,VWS V12.07,2013-05-24 10:42:00,
2013-05-24 03:52:00,38.7,30.5,29.95,SSW,208,5.0,15.0,72,0.00,,SKC,0.00,VWS V12.07,2013-05-24 10:52:00,
2013-05-24 04:02:00,38.6,30.7,29.94,SW,230,6.0,11.0,73,0.00,,SKC,0.00,VWS V12.07,2013-05-24 11:02:00,
2013-05-24 04:12:00,38.5,30.6,29.94,SSW,208,9.0,14.0,73,0.00,,SKC,0.00,VWS V12.07,2013-05-24 11:12:00,
2013-05-24 04:22:00,38.4,30.5,29.94,SW,221,3.0,14.0,73,0.00,,SKC,0.00,VWS V12.07,2013-05-24 11:22:00,
2013-05-24 04:32:00,38.4,31.2,29.95,SW,226,6.0,11.0,75,0.00,,SKC,0.00,VWS V12.07,2013-05-24 11:32:00,
2013-05-24 04:42:00,38.3,31.1,29.95,SSW,212,12.0,12.0,75,0.00,,SKC,0.00,VWS V12.07,2013-05-24 11:42:00,
2013-05-24 04:52:00,38.3,31.1,29.95,SW,216,4.0,12.0,75,0.00,,SKC,0.00,VWS V12.07,2013-05-24 11:52:00,
2013-05-24 05:02:00,38.1,31.2,29.95,SW,220,5.0,12.0,76,0.00,,SKC,0.00,VWS V12.07,2013-05-24 12:02:00,
2013-05-24 05:12:00,38.1,31.2,29.95,SW,216,15.0,16.0,76,0.00,,SKC,0.00,VWS V12.07,2013-05-24 12:12:00,
2013-05-24 05:22:00,38.1,31.2,29.96,SW,230,8.0,16.0,76,0.00,,SKC,0.00,VWS V12.07,2013-05-24 12:22:00,
2013-05-24 05:32:00,38.2,31.3,29.96,SW,233,6.0,14.0,76,0.00,,SKC,0.00,VWS V12.07,2013-05-24 12:32:00,
2013-05-24 05:42:00,38.5,31.6,29.97,SW,221,9.0,17.0,76,0.00,,SKC,0.00,VWS V12.07,2013-05-24 12:42:00,
2013-05-24 05:52:00,38.7,31.5,29.96,SW,228,11.0,17.0,75,0.00,,SKC,0.00,VWS V12.07,2013-05-24 12:52:00,
2013-05-24 06:02:00,38.7,31.5,29.97,SW,215,11.0,13.0,75,0.00,,SKC,0.00,VWS V12.07,2013-05-24 13:02:00,
2013-05-24 06:12:00,38.9,31.7,29.96,SW,222,7.0,14.0,75,0.00,,SKC,0.00,VWS V12.07,2013-05-24 13:12:00,
2013-05-24 06:22:00,39.1,31.9,29.98,WSW,239,7.0,14.0,75,0.00,,SKC,0.00,VWS V12.07,2013-05-24 13:22:00,
2013-05-24 06:32:00,39.4,31.8,29.98,SW,235,4.0,12.0,74,0.00,,SKC,0.00,VWS V12.07,2013-05-24 13:32:00,
2013-05-24 06:42:00,39.6,32.0,29.95,SW,222,14.0,17.0,74,0.00,,SKC,0.00,VWS V12.07,2013-05-24 13:42:00,
2013-05-24 06:52:00,39.5,31.9,29.97,SW,226,0.0,17.0,74,0.00,,SKC,0.00,VWS V12.07,2013-05-24 13:52:00,
2013-05-24 07:02:00,39.1,31.5,29.97,SW,222,14.0,16.0,74,0.00,,SKC,0.00,VWS V12.07,2013-05-24 14:02:00,
2013-05-24 07:12:00,39.5,31.9,29.98,SW,222,0.0,18.0,74,0.00,,SKC,0.00,VWS V12.07,2013-05-24 14:12:00,
2013-05-24 07:22:00,40.4,32.8,29.98,SW,228,0.0,19.0,74,0.00,,SKC,0.00,VWS V12.07,2013-05-24 14:22:00,
2013-05-24 07:32:00,40.8,32.1,29.98,SW,227,14.0,16.0,71,0.00,,SKC,0.00,VWS V12.07,2013-05-24 14:32:00,
2013-05-24 07:42:00,41.6,32.9,29.98,SSW,210,7.0,16.0,71,0.00,,SKC,0.00,VWS V12.07,2013-05-24 14:42:00,
2013-05-24 07:52:00,42.0,32.6,29.98,WSW,242,7.0,16.0,69,0.00,,SKC,0.00,VWS V12.07,2013-05-24 14:52:00,
2013-05-24 08:02:00,42.2,32.4,29.98,WSW,239,9.0,15.0,68,0.00,,SKC,0.00,VWS V12.07,2013-05-24 15:02:00,
2013-05-24 08:12:00,41.8,32.0,29.98,South,180,12.0,16.0,68,0.00,,SKC,0.00,VWS V12.07,2013-05-24 15:12:00,
2013-05-24 08:22:00,42.7,32.5,29.98,SSW,209,8.0,16.0,67,0.00,,SKC,0.00,VWS V12.07,2013-05-24 15:22:00,
2013-05-24 08:32:00,43.2,31.9,29.98,SW,217,0.0,16.0,64,0.00,,SKC,0.00,VWS V12.07,2013-05-24 15:32:00,
2013-05-24 08:42:00,43.0,31.3,29.98,SSW,210,0.0,16.0,63,0.00,,SKC,0.00,VWS V12.07,2013-05-24 15:42:00,
2013-05-24 08:52:00,43.2,30.7,29.97,South,182,12.0,21.0,61,0.00,,SKC,0.00,VWS V12.07,2013-05-24 15:52:00,
2013-05-24 09:02:00,43.8,31.2,29.98,SSW,201,6.0,13.0,61,0.00,,SKC,0.00,VWS V12.07,2013-05-24 16:02:00,
2013-05-24 09:12:00,45.5,31.6,29.98,SW,221,2.0,15.0,58,0.00,,SKC,0.00,VWS V12.07,2013-05-24 16:12:00,
2013-05-24 09:22:00,45.2,29.1,29.98,WSW,255,5.0,15.0,53,0.00,,SKC,0.00,VWS V12.07,2013-05-24 16:22:00,
2013-05-24 09:32:00,45.2,27.2,29.98,West,260,9.0,14.0,49,0.00,,SKC,0.00,VWS V12.07,2013-05-24 16:32:00,
2013-05-24 09:42:00,45.2,27.2,29.98,WSW,244,0.0,14.0,49,0.00,,SKC,0.00,VWS V12.07,2013-05-24 16:42:00,
2013-05-24 09:52:00,44.7,28.2,29.99,SW,214,0.0,14.0,52,0.00,,SKC,0.00,VWS V12.07,2013-05-24 16:52:00,
2013-05-24 10:02:00,45.9,27.8,29.98,South,184,5.0,19.0,49,0.00,,SKC,0.00,VWS V12.07,2013-05-24 17:02:00,
2013-05-24 10:12:00,46.5,28.4,29.98,SSW,213,1.0,19.0,49,0.00,,SKC,0.00,VWS V12.07,2013-05-24 17:12:00,
2013-05-24 10:22:00,46.8,27.6,29.98,SW,222,7.0,19.0,47,0.00,,SKC,0.00,VWS V12.07,2013-05-24 17:22:00,
2013-05-24 10:32:00,46.2,27.1,30.00,WSW,249,7.0,9.0,47,0.00,,SKC,0.00,VWS V12.07,2013-05-24 17:32:00,
2013-05-24 10:42:00,47.1,26.3,29.98,SSW,205,3.0,14.0,44,0.00,,SKC,0.00,VWS V12.07,2013-05-24 17:42:00,
2013-05-24 10:52:00,47.8,28.0,29.98,West,261,16.0,19.0,46,0.00,,SKC,0.00,VWS V12.07,2013-05-24 17:52:00,
2013-05-24 11:02:00,47.9,28.1,29.97,SW,225,10.0,15.0,46,0.00,,SKC,0.00,VWS V12.07,2013-05-24 18:02:00,
2013-05-24 11:12:00,49.0,28.6,29.99,West,263,13.0,18.0,45,0.00,,SKC,0.00,VWS V12.07,2013-05-24 18:12:00,
2013-05-24 11:22:00,48.1,26.7,29.98,SW,218,9.0,20.0,43,0.00,,SKC,0.00,VWS V12.07,2013-05-24 18:22:00,
2013-05-24 11:32:00,49.1,27.6,29.98,SSE,165,13.0,13.0,43,0.00,,SKC,0.00,VWS V12.07,2013-05-24 18:32:00,
2013-05-24 11:42:00,49.7,27.0,29.97,South,171,14.0,20.0,41,0.00,,SKC,0.00,VWS V12.07,2013-05-24 18:42:00,
2013-05-24 11:52:00,50.0,26.6,29.97,SW,224,10.0,20.0,40,0.00,,SKC,0.00,VWS V12.07,2013-05-24 18:52:00,
2013-05-24 12:02:00,50.4,27.6,29.98,WSW,242,6.0,13.0,41,0.00,,SKC,0.00,VWS V12.07,2013-05-24 19:02:00,
2013-05-24 12:12:00,50.0,26.0,29.98,West,272,8.0,14.0,39,0.00,,SKC,0.00,VWS V12.07,2013-05-24 19:12:00,
2013-05-24 12:22:00,51.5,26.8,29.97,South,176,12.0,14.0,38,0.00,,SKC,0.00,VWS V12.07,2013-05-24 19:22:00,
2013-05-24 12:32:00,51.7,26.9,29.98,SW,231,7.0,24.0,38,0.00,,SKC,0.00,VWS V12.07,2013-05-24 19:32:00,
2013-05-24 12:42:00,51.5,26.8,29.98,WSW,249,9.0,24.0,38,0.00,,SKC,0.00,VWS V12.07,2013-05-24 19:42:00,
2013-05-24 12:52:00,51.5,28.0,29.97,SSW,204,8.0,24.0,40,0.00,,SKC,0.00,VWS V12.07,2013-05-24 19:52:00,
2013-05-24 13:02:00,51.2,28.3,29.96,West,281,6.0,12.0,41,0.00,,SKC,0.00,VWS V12.07,2013-05-24 20:02:00,
2013-05-24 13:12:00,50.3,28.1,29.97,West,266,5.0,20.0,42,0.00,,SKC,0.00,VWS V12.07,2013-05-24 20:12:00,
2013-05-24 13:22:00,50.2,28.6,29.98,North,349,6.0,20.0,43,0.00,,SKC,0.00,VWS V12.07,2013-05-24 20:22:00,
2013-05-24 13:32:00,50.1,28.5,29.99,NNE,23,9.0,11.0,43,0.00,,SKC,0.00,VWS V12.07,2013-05-24 20:32:00,
2013-05-24 13:42:00,50.3,28.7,29.98,North,359,7.0,11.0,43,0.00,,SKC,0.00,VWS V12.07,2013-05-24 20:42:00,
2013-05-24 13:52:00,50.4,28.2,29.98,North,7,11.0,15.0,42,0.00,,SKC,0.00,VWS V12.07,2013-05-24 20:52:00,
2013-05-24 14:02:00,50.5,28.9,29.98,NNW,332,6.0,12.0,43,0.00,,SKC,0.00,VWS V12.07,2013-05-24 21:02:00,
2013-05-24 14:12:00,51.3,28.4,29.99,NNE,12,16.0,18.0,41,0.00,,SKC,0.00,VWS V12.07,2013-05-24 21:12:00,
2013-05-24 14:22:00,51.3,28.4,29.98,NNE,18,12.0,21.0,41,0.00,,SKC,0.00,VWS V12.07,2013-05-24 21:22:00,
2013-05-24 14:32:00,51.9,28.4,30.00,NNE,14,0.0,18.0,40,0.00,,SKC,0.00,VWS V12.07,2013-05-24 21:32:00,
2013-05-24 14:42:00,51.6,27.5,29.99,NNE,12,10.0,18.0,39,0.00,,SKC,0.00,VWS V12.07,2013-05-24 21:42:00,
2013-05-24 14:52:00,50.5,27.1,29.99,NNE,16,4.0,18.0,40,0.00,,SKC,0.00,VWS V12.07,2013-05-24 21:52:00,
2013-05-24 15:02:00,50.4,27.6,29.98,ESE,121,7.0,9.0,41,0.00,,SKC,0.00,VWS V12.07,2013-05-24 22:02:00,
2013-05-24 15:12:00,51.6,28.1,29.99,SE,140,5.0,10.0,40,0.00,,SKC,0.00,VWS V12.07,2013-05-24 22:12:00,
2013-05-24 15:22:00,51.6,28.1,29.98,NE,46,5.0,10.0,40,0.00,,SKC,0.00,VWS V12.07,2013-05-24 22:22:00,
2013-05-24 15:32:00,51.9,28.4,29.99,NE,45,2.0,5.0,40,0.00,,SKC,0.00,VWS V12.07,2013-05-24 22:32:00,
2013-05-24 15:42:00,53.2,28.9,29.99,North,356,4.0,12.0,39,0.00,,SKC,0.00,VWS V12.07,2013-05-24 22:42:00,
2013-05-24 15:52:00,53.5,28.5,29.98,NNW,341,5.0,12.0,38,0.00,,SKC,0.00,VWS V12.07,2013-05-24 22:52:00,
2013-05-24 16:02:00,53.2,28.3,29.99,North,0,9.0,11.0,38,0.00,,SKC,0.00,VWS V12.07,2013-05-24 23:02:00,
2013-05-24 16:12:00,53.1,29.4,29.97,North,0,3.0,12.0,40,0.00,,SKC,0.00,VWS V12.07,2013-05-24 23:12:00,
2013-05-24 16:22:00,52.5,29.5,29.99,North,7,6.0,19.0,41,0.00,,SKC,0.00,VWS V12.07,2013-05-24 23:22:00,
2013-05-24 16:32:00,52.2,30.4,29.98,North,350,10.0,19.0,43,0.00,,SKC,0.00,VWS V12.07,2013-05-24 23:32:00,
2013-05-24 16:42:00,51.2,29.5,29.98,NNW,340,12.0,19.0,43,0.00,,SKC,0.00,VWS V12.07,2013-05-24 23:42:00,
2013-05-24 16:52:00,51.6,29.9,29.99,NNE,15,5.0,19.0,43,0.00,,SKC,0.00,VWS V12.07,2013-05-24 23:52:00,
2013-05-24 17:02:00,51.5,30.3,29.98,NNE,23,12.0,16.0,44,0.00,,SKC,0.00,VWS V12.07,2013-05-25 00:02:00,
2013-05-24 17:12:00,52.3,30.5,29.98,NNE,17,3.0,20.0,43,0.00,,SKC,0.00,VWS V12.07,2013-05-25 00:12:00,
2013-05-24 17:22:00,52.2,30.4,29.97,North,0,11.0,20.0,43,0.00,,SKC,0.00,VWS V12.07,2013-05-25 00:22:00,
2013-05-24 17:32:00,52.1,30.3,29.99,NNW,337,15.0,17.0,43,0.00,,SKC,0.00,VWS V12.07,2013-05-25 00:32:00,
2013-05-24 17:43:00,51.3,29.0,30.00,North,351,14.0,21.0,42,0.00,,SKC,0.00,VWS V12.07,2013-05-25 00:43:00,
2013-05-24 17:52:00,50.9,28.6,29.99,NNE,21,13.0,23.0,42,0.00,,SKC,0.00,VWS V12.07,2013-05-25 00:52:00,
2013-05-24 18:02:00,50.9,28.6,30.00,North,5,6.0,21.0,42,0.00,,SKC,0.00,VWS V12.07,2013-05-25 01:02:00,
2013-05-24 18:12:00,51.0,29.3,29.98,North,358,10.0,21.0,43,0.00,,SKC,0.00,VWS V12.07,2013-05-25 01:12:00,
2013-05-24 18:22:00,50.6,29.0,30.00,North,11,19.0,21.0,43,0.00,,SKC,0.00,VWS V12.07,2013-05-25 01:22:00,
2013-05-24 18:32:00,49.8,29.9,29.99,NNE,19,10.0,14.0,46,0.00,,SKC,0.00,VWS V12.07,2013-05-25 01:32:00,
2013-05-24 18:42:00,49.4,30.5,30.00,North,349,15.0,16.0,48,0.00,,SKC,0.00,VWS V12.07,2013-05-25 01:42:00,
2013-05-24 18:52:00,49.4,30.5,29.99,North,355,12.0,16.0,48,0.00,,SKC,0.00,VWS V12.07,2013-05-25 01:52:00,
2013-05-24 19:04:00,49.4,31.1,30.00,North,356,8.0,13.0,49,0.00,,SKC,0.00,VWS V12.07,2013-05-25 02:04:00,
2013-05-24 19:12:00,48.8,30.5,30.00,North,6,12.0,16.0,49,0.00,,SKC,0.00,VWS V12.07,2013-05-25 02:12:00,
2013-05-24 19:22:00,48.8,30.5,30.00,North,0,2.0,16.0,49,0.00,,SKC,0.00,VWS V12.07,2013-05-25 02:22:00,
2013-05-24 19:32:00,48.8,30.0,30.00,North,6,7.0,11.0,48,0.00,,SKC,0.00,VWS V12.07,2013-05-25 02:32:00,
2013-05-24 19:42:00,48.2,30.0,30.02,North,356,9.0,14.0,49,0.00,,SKC,0.00,VWS V12.07,2013-05-25 02:42:00,
2013-05-24 19:52:00,47.9,30.7,30.01,North,359,5.0,14.0,51,0.00,,SKC,0.00,VWS V12.07,2013-05-25 02:52:00,
2013-05-24 20:02:00,47.6,31.3,30.01,North,358,6.0,10.0,53,0.00,,SKC,0.00,VWS V12.07,2013-05-25 03:02:00,
2013-05-24 20:12:00,47.4,32.1,29.99,NNE,12,7.0,12.0,55,0.00,,SKC,0.00,VWS V12.07,2013-05-25 03:12:00,
2013-05-24 20:22:00,46.9,32.5,30.01,NNE,18,4.0,12.0,57,0.00,,SKC,0.00,VWS V12.07,2013-05-25 03:22:00,
2013-05-24 20:32:00,46.3,31.9,30.00,North,10,5.0,7.0,57,0.00,,SKC,0.00,VWS V12.07,2013-05-25 03:32:00,
2013-05-24 20:42:00,45.9,32.0,30.01,North,1,4.0,10.0,58,0.00,,SKC,0.00,VWS V12.07,2013-05-25 03:42:00,
2013-05-24 20:52:00,45.3,31.8,30.00,North,1,7.0,11.0,59,0.00,,SKC,0.00,VWS V12.07,2013-05-25 03:52:00,
2013-05-24 21:02:00,45.2,32.6,30.01,NNE,21,1.0,7.0,61,0.00,,SKC,0.00,VWS V12.07,2013-05-25 04:02:00,
2013-05-24 21:12:00,44.5,31.9,30.01,NNE,21,1.0,7.0,61,0.00,,SKC,0.00,VWS V12.07,2013-05-25 04:12:00,
2013-05-24 21:22:00,44.1,32.7,30.02,North,359,0.0,10.0,64,0.00,,SKC,0.00,VWS V12.07,2013-05-25 04:22:00,
2013-05-24 21:32:00,43.5,32.5,30.01,North,0,4.0,7.0,65,0.00,,SKC,0.00,VWS V12.07,2013-05-25 04:32:00,
2013-05-24 21:42:00,43.2,32.6,30.01,North,0,7.0,8.0,66,0.00,,SKC,0.00,VWS V12.07,2013-05-25 04:42:00,
2013-05-24 21:52:00,42.6,32.4,30.02,North,0,2.0,8.0,67,0.00,,SKC,0.00,VWS V12.07,2013-05-25 04:52:00,
2013-05-24 22:02:00,42.4,32.6,30.01,North,0,0.0,0.0,68,0.00,,SKC,0.00,VWS V12.07,2013-05-25 05:02:00,
2013-05-24 22:12:00,42.3,32.5,30.02,North,0,0.0,0.0,68,0.00,,SKC,0.00,VWS V12.07,2013-05-25 05:12:00,
2013-05-24 22:22:00,42.1,32.3,30.02,North,0,2.0,5.0,68,0.00,,SKC,0.00,VWS V12.07,2013-05-25 05:22:00,
2013-05-24 22:32:00,42.1,32.3,30.02,North,0,2.0,4.0,68,0.00,,SKC,0.00,VWS V12.07,2013-05-25 05:32:00,
2013-05-24 22:42:00,41.8,32.4,30.03,North,0,0.0,4.0,69,0.00,,SKC,0.00,VWS V12.07,2013-05-25 05:42:00,
2013-05-24 22:52:00,41.5,32.1,30.01,North,0,0.0,4.0,69,0.00,,SKC,0.00,VWS V12.07,2013-05-25 05:52:00,
2013-05-24 23:02:00,41.3,31.9,30.02,North,0,0.0,0.0,69,0.00,,SKC,0.00,VWS V12.07,2013-05-25 06:02:00,
2013-05-24 23:12:00,40.7,31.7,30.02,North,0,0.0,2.0,70,0.00,,SKC,0.00,VWS V12.07,2013-05-25 06:12:00,
2013-05-24 23:22:00,40.4,31.8,30.01,North,0,2.0,5.0,71,0.00,,SKC,0.00,VWS V12.07,2013-05-25 06:22:00,
2013-05-24 23:32:00,39.5,31.2,30.02,North,0,3.0,6.0,72,0.00,,SKC,0.00,VWS V12.07,2013-05-25 06:32:00,
2013-05-24 23:42:00,38.9,31.0,30.01,North,0,4.0,6.0,73,0.00,,SKC,0.00,VWS V12.07,2013-05-25 06:42:00,
2013-05-24 23:52:00,38.7,31.1,30.01,North,0,4.0,6.0,74,0.00,,SKC,0.00,VWS V12.07,2013-05-25 06:52:00,